Regional Weather Roundup
Issued by NWS Northern Indiana

Home | Current Version | Previous Version | Graphics & Text | Print | Product List | Glossary On
Versions: 1 2 3 4 5 6 7 8 9 10 11 12 13 14 15 16 17 18 19 20 21 22 23 24 25 26 27 28 29 30 31 32 33 34 35 36 37 38 39 40 41 42 43 44 45 46 47 48 49 50
000
ASUS43 KIWX 311610
RWRIWX

KIWX WEATHER ROUNDUP
NATIONAL WEATHER SERVICE NORTHERN INDIANA
1200 PM EDT MON AUG 31 2015

NOTE: "FAIR" INDICATES FEW OR NO CLOUDS BELOW 12,000 FEET WITH NO
SIGNIFICANT WEATHER AND/OR OBSTRUCTIONS TO VISIBILITY.

* THESE STATIONS ARE NOT UNDER NWS QUALITY CONTROL. THEY ALSO MAY NOT
  REPORT WEATHER SUCH AS PRECIPITATION OR FOG.

INZ001>027-311700-
NORTHERN INDIANA

CITY           SKY/WX    TMP DP  RH WIND       PRES   REMARKS
GARY*          MOSUNNY   79  68  69 CALM      30.10S
VALPARAISO     MOSUNNY   75  70  84 CALM      30.11S
MICHIGAN CITY* MOSUNNY   77  72  83 S3        30.10F
LAPORTE*       PTSUNNY  N/A N/A N/A CALM      30.12S FOG
KNOX*          SUNNY     73  73 100 CALM      30.10S
SOUTH BEND     MOSUNNY   76  69  79 SW6       30.11S
ELKHART*       SUNNY     75  72  88 CALM      30.12S FOG
GOSHEN         LGT RAIN  79  71  76 S6        30.11S
MONTICELLO*    SUNNY     80  74  82 SW5       30.10S
LOGANSPORT*    MOSUNNY   81  64  57 W3        30.12S
ROCHESTER*     SUNNY     82  72  69 W6        30.11F
WARSAW*        SUNNY     79  70  73 SW3       30.11F
ANGOLA*        MOSUNNY   82  72  69 CALM      30.11S
FORT WAYNE     MOSUNNY   81  71  71 SW6       30.12S
HUNTINGTON*    PTSUNNY   80  66  63 W6        30.12S
MARION*        MOSUNNY   80  62  53 W6        30.13S

$$
INZ028>050-311700-
CENTRAL INDIANA

CITY           SKY/WX    TMP DP  RH WIND       PRES   REMARKS
LAFAYETTE      PTSUNNY   82  69  64 SW6       30.10S
KOKOMO*        PTSUNNY   81  70  69 W6        30.12S
MUNCIE*        MOSUNNY   78  69  73 VRB7      30.13S
INDIANAPOLIS   NOT AVBL

$$
MIZ043>046-050>051-056>058-064>065-071>073-077>080-311700-
SOUTHWEST LOWER MICHIGAN

CITY           SKY/WX    TMP DP  RH WIND       PRES   REMARKS
BATTLE CREEK   CLOUDY    75  67  76 VRB5      30.12S
BENTON HARBOR  PTSUNNY   77  69  76 SW6       30.10R
COLDWATER*     CLOUDY    78  70  76 NW3       30.12S
HILLSDALE*     PTSUNNY   79  71  77 NW3       30.12F
HOLLAND        PTSUNNY   76  67  73 S3        30.11S
GRAND RAPIDS   MOSUNNY   73  65  75 SW6       30.11S
KALAMAZOO      CLOUDY    74  67  78 CALM      30.11F
STURGIS*       PTSUNNY   75  72  88 CALM      30.11S FOG
THREE RIVERS*  FAIR      73  73 100 CALM      30.12S FOG

$$
OHZ001>008-015>018-024>025-311700-
NORTHWEST OHIO

CITY           SKY/WX    TMP DP  RH WIND       PRES   REMARKS
WAUSEON*       PTSUNNY   81  73  78 CALM      30.12S HAZE
DEFIANCE       MOSUNNY   78  70  76 SW3       30.12S
FINDLAY        SUNNY     81  69  67 W6        30.12R
TOLEDO EXPRESS MOSUNNY   80  69  69 VRB6      30.11S
TOLEDO METCALF MOSUNNY   80  68  66 VRB5      30.12S
LIMA           SUNNY     80  68  66 W7        30.13S

$$
AND FOR LAKE MICHIGAN COASTAL AND OPEN LAKE BUOY OBSERVATIONS

STATION/POSITION TEMP    WIND        PRES    VSBY  WAVE
                 AIR SEA DIR/SP/G                  HT/PER
                 (F)     (DEG/KT/KT) (MB)    (MI)  (FT/S)
BURNS HARBOR      72     290/  3/  5 1019.6R
SAINT JOSEPH      76     200/  3/  4 1020.3R
SOUTH LAKE BUOY   66 70  270/  2/  4 1018.8R         0

$$
&&


USA.gov is the U.S. government's official web portal to all federal, state and local government web resources and services.